Tracking 20721 objects as of 1-Jun-2020
HD Live streaming from Space Station
objects crossing your sky now

DMSP 5D-2 F6 DEB

Track DMSP 5D-2 F6 DEB now!
10-day predictions


NORAD ID: 40919
Int'l Code: 1982-118M
Perigee: 758.7 km
Apogee: 783.5 km
Inclination: 98.5 °
Period: 100.1 minutes
Semi major axis: 7142 km
RCS: Unknown
Launch date: December 21, 1982
Source: United States (US)
Launch site: AIR FORCE WESTERN TEST RANGE (AFWTR)

Note: This is SATELLITE DEBRIS
aabbcc
Your satellite tracking list
Your tracking list is empty




NASA's NSSDC Master Catalog

Two Line Element Set (TLE):
1 40919U 82118M   20151.35747101 +.00001113 +00000-0 +37907-3 0  9995
2 40919 098.5087 345.3110 0017304 152.0906 208.1213 14.38347152211129
Source of the keplerian elements: AFSPC